Els Cortals - Les Guilleries





Hora UTC 17:55
Temperatura 5.3 ºC
Humitat 68.0 %
Pressió 1027.5 hPa
Pluja 0.0 mm
Velocitat vent 0.0 km/h
Direcció vent SW

Dades diàries 2022-01-25



Hora UTC (hivern +1h; estiu +2h)
Temperatura (ºC) Humitat (%) Pressió (hPa) Velocitat vent (km/h) Precipitació (mm)
Hora UTC Aire Humitat Pressió Vel. Dir. Vel. Max Dir. Intent. màx 5 min.
00:05 2.1 83.0 1028.1 9.7 NNW 9.7 0.0
00:10 2.1 83.0 1028.1 4.8 NW 14.5 0.0
00:15 2.0 82.0 1028.0 8.0 NNW 14.5 0.0
00:20 1.9 82.0 1028.0 6.4 NNW 11.3 0.0
00:25 1.8 82.0 1027.9 9.7 NW 12.9 0.0
00:30 1.8 83.0 1028.0 1.6 NW 12.9 0.0
00:35 1.8 83.0 1028.0 3.2 NW 11.3 0.0
00:40 1.8 83.0 1028.0 8.0 NNW 9.7 0.0
00:45 1.8 83.0 1028.0 6.4 NW 9.7 0.0
00:50 1.7 83.0 1028.0 9.7 NNW 9.7 0.0
00:55 1.7 83.0 1027.9 8.0 WNW 9.7 0.0
01:00 1.6 83.0 1028.0 8.0 NW 9.7 0.0
01:05 1.6 83.0 1028.0 3.2 NNW 9.7 0.0
01:10 1.4 83.0 1028.0 8.0 NNW 11.3 0.0
01:15 1.4 84.0 1028.1 4.8 NW 11.3 0.0
01:20 1.3 84.0 1028.0 3.2 NW 8.0 0.0
01:25 1.3 84.0 1028.2 3.2 NW 8.0 0.0
01:30 1.3 84.0 1028.2 1.6 NW 8.0 0.0
01:35 1.3 84.0 1028.2 3.2 WNW 9.7 0.0
01:40 1.3 84.0 1028.3 1.6 WNW 9.7 0.0
01:45 1.3 84.0 1028.4 4.8 NW 8.0 0.0
01:50 1.3 84.0 1028.3 3.2 NW 8.0 0.0
01:55 1.3 84.0 1028.3 3.2 W 8.0 0.0
02:00 1.2 85.0 1028.2 6.4 W 6.4 0.0
02:05 1.2 85.0 1028.2 0.0 W 8.0 0.0
02:10 1.3 85.0 1028.3 0.0 WNW 8.0 0.0
02:15 1.3 85.0 1028.2 0.0 WNW 6.4 0.0
02:20 1.3 85.0 1028.2 3.2 WNW 6.4 0.0
02:25 1.3 85.0 1028.2 0.0 WNW 6.4 0.0
02:30 1.3 85.0 1028.3 0.0 WNW 6.4 0.0
02:35 1.4 85.0 1028.1 0.0 WNW 6.4 0.0
02:40 1.6 84.0 1028.1 0.0 WNW 1.6 0.0
02:45 1.6 84.0 1028.1 0.0 WNW 0.0 0.0
02:50 1.6 83.0 1028.2 0.0 WNW 9.7 0.0
02:55 1.7 83.0 1028.1 9.7 NW 11.3 0.0
03:00 1.8 83.0 1028.1 0.0 WNW 11.3 0.0
03:05 1.9 82.0 1028.1 0.0 W 9.7 0.0
03:10 1.9 81.0 1028.1 0.0 W 3.2 0.0
03:15 1.8 81.0 1028.2 0.0 W 3.2 0.0
03:20 1.8 81.0 1028.1 0.0 W 1.6 0.0
03:25 1.8 80.0 1028.1 1.6 NW 6.4 0.0
03:30 1.7 80.0 1028.0 0.0 NW 4.8 0.0
03:35 1.7 79.0 1028.0 3.2 NW 8.0 0.0
03:40 1.7 79.0 1027.9 3.2 NW 8.0 0.0
03:45 1.8 79.0 1027.8 3.2 NW 8.0 0.0
03:50 1.8 79.0 1027.9 6.4 NW 9.7 0.0
03:55 1.9 78.0 1027.9 3.2 WNW 9.7 0.0
04:00 1.9 78.0 1027.9 6.4 NW 8.0 0.0
04:05 1.9 78.0 1027.9 6.4 NW 9.7 0.0
04:10 1.8 77.0 1027.9 6.4 NW 9.7 0.0
04:15 1.8 77.0 1028.0 1.6 NW 9.7 0.0
04:20 1.7 77.0 1027.9 3.2 NW 8.0 0.0
04:25 1.7 77.0 1027.9 0.0 NW 6.4 0.0
04:30 1.7 76.0 1027.9 0.0 NW 0.0 0.0
04:35 1.6 76.0 1027.9 0.0 NW 0.0 0.0
04:40 1.5 76.0 1027.9 0.0 NW 0.0 0.0
04:45 1.3 75.0 1027.9 0.0 NW 0.0 0.0
04:50 1.3 75.0 1028.0 0.0 NW 0.0 0.0
04:55 1.3 75.0 1028.0 0.0 NW 0.0 0.0
05:00 1.3 75.0 1027.9 0.0 NW 0.0 0.0
05:05 1.2 74.0 1027.9 0.0 NW 0.0 0.0
05:10 1.2 74.0 1027.8 0.0 NW 0.0 0.0
05:15 1.2 73.0 1027.8 6.4 NW 6.4 0.0
05:20 1.3 72.0 1027.8 0.0 NW 6.4 0.0
05:25 1.3 71.0 1027.8 0.0 NW 6.4 0.0
05:30 1.4 70.0 1027.8 0.0 NW 0.0 0.0
05:35 1.4 70.0 1027.8 0.0 NW 0.0 0.0
05:40 1.6 69.0 1027.8 0.0 NW 0.0 0.0
05:45 1.7 67.0 1027.9 0.0 NW 6.4 0.0
05:50 1.8 67.0 1028.0 0.0 NW 6.4 0.0
05:55 1.8 66.0 1027.9 0.0 NW 0.0 0.0
06:00 1.8 66.0 1027.9 0.0 WNW 0.0 0.0
06:05 1.8 66.0 1027.9 0.0 WNW 0.0 0.0
06:10 1.8 66.0 1027.9 0.0 W 3.2 0.0
06:15 1.7 67.0 1027.8 0.0 W 3.2 0.0
06:20 1.7 67.0 1027.9 3.2 WNW 4.8 0.0
06:25 1.6 68.0 1028.0 6.4 NW 8.0 0.0
06:30 1.6 68.0 1028.0 6.4 WNW 9.7 0.0
06:35 1.6 69.0 1028.0 8.0 NW 9.7 0.0
06:40 1.7 69.0 1028.1 6.4 NW 9.7 0.0
06:45 1.8 70.0 1028.1 6.4 NW 9.7 0.0
06:50 1.9 71.0 1028.1 6.4 WNW 12.9 0.0
06:55 2.0 76.0 1028.2 3.2 NW 12.9 0.0
07:00 2.0 72.0 1028.2 6.4 NW 9.7 0.0
07:05 2.0 72.0 1028.2 3.2 WNW 9.7 0.0
07:10 1.9 72.0 1028.3 4.8 NW 9.7 0.0
07:15 2.0 73.0 1028.3 14.5 NW 14.5 0.0
07:20 2.1 73.0 1028.2 8.0 NW 14.5 0.0
07:25 2.4 73.0 1028.3 6.4 NW 12.9 0.0
07:30 2.6 73.0 1028.3 9.7 NW 12.9 0.0
07:35 2.9 73.0 1028.3 1.6 NW 12.9 0.0
07:40 3.2 73.0 1028.3 3.2 NW 12.9 0.0
07:45 3.4 73.0 1028.4 6.4 NNW 9.7 0.0
07:50 3.7 73.0 1028.5 4.8 NW 9.7 0.0
07:55 4.0 73.0 1028.5 4.8 NW 9.7 0.0
08:00 4.3 72.0 1028.5 4.8 W 9.7 0.0
08:05 4.7 72.0 1028.5 1.6 WNW 9.7 0.0
08:10 5.1 72.0 1028.5 3.2 NW 12.9 0.0
08:20 5.7 71.0 1028.4 1.6 NW 12.9 0.0
08:25 6.1 71.0 1028.4 6.4 NW 12.9 0.0
08:30 6.4 70.0 1028.4 9.7 NNW 12.9 0.0
08:35 6.7 69.0 1028.3 8.0 WNW 11.3 0.0
08:40 7.0 68.0 1028.4 1.6 NNW 11.3 0.0
08:45 7.2 66.0 1028.4 0.0 NNW 9.7 0.0
08:50 7.3 65.0 1028.4 0.0 WNW 8.0 0.0
08:55 7.4 65.0 1028.4 0.0 NNW 8.0 0.0
09:00 7.5 65.0 1028.5 0.0 WNW 8.0 0.0
09:05 7.6 64.0 1028.6 6.4 WSW 11.3 0.0
09:10 7.7 64.0 1028.6 1.6 WSW 11.3 0.0
09:15 7.7 64.0 1028.6 0.0 W 8.0 0.0
09:20 7.9 63.0 1028.6 0.0 NE 6.4 0.0
09:25 8.2 64.0 1028.7 0.0 NNE 6.4 0.0
09:30 8.6 62.0 1028.7 0.0 NNW 6.4 0.0
09:35 8.8 63.0 1028.8 0.0 E 6.4 0.0
09:40 8.9 61.0 1028.8 0.0 E 6.4 0.0
09:45 8.9 62.0 1028.8 0.0 E 3.2 0.0
09:50 8.9 62.0 1028.9 0.0 E 3.2 0.0
09:55 8.9 65.0 1028.9 1.6 E 8.0 0.0
10:00 8.9 65.0 1028.9 3.2 ESE 8.0 0.0
10:05 8.9 65.0 1028.9 0.0 E 8.0 0.0
10:10 8.9 66.0 1028.9 0.0 ESE 8.0 0.0
10:15 8.9 67.0 1028.9 0.0 ESE 6.4 0.0
10:20 9.1 66.0 1028.9 0.0 ESE 0.0 0.0
10:25 9.2 65.0 1028.9 0.0 ESE 0.0 0.0
10:30 9.3 64.0 1028.9 0.0 ESE 0.0 0.0
10:35 9.5 66.0 1028.9 0.0 ESE 3.2 0.0
10:40 9.7 65.0 1028.9 0.0 ESE 6.4 0.0
10:45 9.8 66.0 1028.9 0.0 E 4.8 0.0
10:50 9.8 65.0 1028.9 3.2 E 6.4 0.0
10:55 9.8 66.0 1028.9 3.2 E 8.0 0.0
11:00 9.8 66.0 1028.8 1.6 E 8.0 0.0
11:05 9.6 67.0 1028.8 0.0 E 8.0 0.0
11:10 9.6 67.0 1028.6 3.2 E 8.0 0.0
11:15 9.4 66.0 1028.6 3.2 E 8.0 0.0
11:20 9.4 67.0 1028.6 3.2 E 8.0 0.0
11:25 9.5 67.0 1028.5 3.2 E 8.0 0.0
11:30 9.6 67.0 1028.5 0.0 E 8.0 0.0
11:35 9.6 68.0 1028.5 1.6 E 6.4 0.0
11:40 9.6 68.0 1028.4 0.0 E 9.7 0.0
11:45 9.7 68.0 1028.4 1.6 ENE 9.7 0.0
11:50 9.7 69.0 1028.3 9.7 ENE 12.9 0.0
11:55 9.7 69.0 1028.2 8.0 E 12.9 0.0
12:00 9.6 69.0 1028.3 3.2 E 11.3 0.0
12:05 9.6 70.0 1028.3 4.8 ENE 9.7 0.0
12:10 9.5 70.0 1028.2 4.8 NE 11.3 0.0
12:15 9.4 71.0 1028.1 3.2 E 11.3 0.0
12:20 9.4 71.0 1028.1 6.4 E 9.7 0.0
12:25 9.3 70.0 1028.1 6.4 ESE 9.7 0.0
12:30 9.3 71.0 1028.0 6.4 ENE 9.7 0.0
12:35 9.3 72.0 1028.1 6.4 E 8.0 0.0
12:40 9.3 72.0 1027.9 3.2 ESE 8.0 0.0
12:45 9.4 72.0 1027.9 6.4 ESE 8.0 0.0
12:50 9.6 72.0 1027.8 4.8 ESE 9.7 0.0
12:55 9.6 71.0 1027.7 3.2 ENE 9.7 0.0
13:00 9.6 71.0 1027.7 0.0 ENE 8.0 0.0
13:05 9.6 72.0 1027.7 1.6 ESE 8.0 0.0
13:10 9.6 71.0 1027.7 1.6 E 9.7 0.0
13:15 9.7 72.0 1027.5 3.2 E 9.7 0.0
13:20 9.6 72.0 1027.5 1.6 E 8.0 0.0
13:25 9.8 72.0 1027.4 3.2 ESE 11.3 0.0
13:30 9.8 72.0 1027.4 0.0 ESE 11.3 0.0
13:35 9.9 71.0 1027.4 1.6 ESE 8.0 0.0
13:40 9.9 72.0 1027.3 0.0 E 8.0 0.0
13:45 9.8 72.0 1027.2 0.0 ESE 8.0 0.0
13:50 9.9 72.0 1027.2 3.2 E 8.0 0.0
13:55 9.9 72.0 1027.3 6.4 ENE 8.0 0.0
14:00 9.8 72.0 1027.2 3.2 E 8.0 0.0
14:05 9.8 72.0 1027.1 3.2 ESE 8.0 0.0
14:10 9.7 73.0 1027.1 6.4 ESE 8.0 0.0
14:15 9.6 73.0 1027.1 3.2 E 8.0 0.0
14:20 9.6 74.0 1027.0 1.6 E 8.0 0.0
14:25 9.4 74.0 1027.1 1.6 E 8.0 0.0
14:30 9.3 74.0 1027.1 1.6 ENE 8.0 0.0
14:35 9.2 75.0 1027.2 0.0 ENE 8.0 0.0
14:40 9.1 75.0 1027.2 3.2 ESE 8.0 0.0
14:45 9.1 76.0 1027.2 1.6 E 8.0 0.0
14:50 9.1 76.0 1027.3 4.8 E 6.4 0.0
14:55 9.0 76.0 1027.3 0.0 ESE 6.4 0.0
15:00 9.0 78.0 1027.3 0.0 E 6.4 0.0
15:05 9.1 77.0 1027.3 1.6 E 3.2 0.0
15:10 9.0 76.0 1027.3 0.0 E 3.2 0.0
15:15 8.9 77.0 1027.2 1.6 E 3.2 0.0
15:20 8.9 77.0 1027.3 0.0 E 3.2 0.0
15:25 8.9 77.0 1027.2 0.0 E 3.2 0.0
15:30 8.9 77.0 1027.2 0.0 E 3.2 0.0
15:35 8.9 77.0 1027.2 0.0 E 1.6 0.0
15:40 8.9 77.0 1027.1 0.0 E 1.6 0.0
15:45 8.9 77.0 1027.0 0.0 E 0.0 0.0
15:50 8.9 77.0 1026.9 0.0 E 1.6 0.0
15:55 8.9 77.0 1027.0 0.0 E 1.6 0.0
16:00 8.8 76.0 1027.0 0.0 E 0.0 0.0
16:05 8.7 76.0 1027.1 0.0 E 1.6 0.0
16:10 8.4 75.0 1027.2 0.0 E 1.6 0.0
16:15 8.3 72.0 1027.2 0.0 SW 1.6 0.0
16:20 8.2 69.0 1027.2 1.6 WSW 9.7 0.0
16:25 8.1 68.0 1027.3 0.0 W 6.4 0.0
16:30 8.0 69.0 1027.2 0.0 W 0.0 0.0
16:35 7.9 68.0 1027.2 0.0 W 0.0 0.0
16:40 7.7 68.0 1027.3 0.0 W 0.0 0.0
16:45 7.6 68.0 1027.4 0.0 W 0.0 0.0
16:50 7.3 68.0 1027.3 0.0 W 0.0 0.0
16:55 7.1 68.0 1027.4 0.0 W 0.0 0.0
17:00 6.8 69.0 1027.5 0.0 W 0.0 0.0
17:05 6.5 69.0 1027.4 0.0 W 0.0 0.0
17:10 6.2 69.0 1027.6 0.0 W 3.2 0.0
17:15 5.9 70.0 1027.7 0.0 WNW 6.4 0.0
17:20 5.7 70.0 1027.7 0.0 WNW 6.4 0.0
17:25 5.6 70.0 1027.7 4.8 WNW 8.0 0.0
17:30 5.4 69.0 1027.6 3.2 WSW 11.3 0.0
17:35 5.3 69.0 1027.5 1.6 WSW 11.3 0.0
17:40 5.3 69.0 1027.5 0.0 WSW 11.3 0.0
17:45 5.3 68.0 1027.5 0.0 WNW 8.0 0.0
17:50 5.3 68.0 1027.5 0.0 WNW 8.0 0.0
17:55 5.3 68.0 1027.5 0.0 SW 6.4 0.0
Màxima 9.9 85.0 1028.9 14.5 NW 14.5 0.0
Mínima 1.2 61.0 1026.9
Total 0.0